Location: Baia Mare
(47.6567°N, 23.5850°E)
Time: 14:37:48
(UTC+02:00)

ISS - Pass Details

Date: 26 December 2018
Orbit: 401 x 408 km, 51.6° (Epoch: 16 December)

Event Time Altitude Azimuth Distance (km) Brightness Sun altitude
Exits shadow 06:12:52 10° 199° (SSW) 1,491 -1.0 -19.2°
Reaches altitude 10° 06:12:57 10° 199° (SSW) 1,460 -1.1 -19.2°
Maximum altitude 06:15:42 25° 141° (SE) 863 -1.6 -18.7°
Drops below altitude 10° 06:18:28 10° 84° (E) 1,465 0.1 -18.3°
Sets 06:20:46 0° 71° (ENE) 2,328 1.0 -17.9°
